| time (UTC) | temp C | wind direction | speed KPH | gust KPH | rain 1hr cm | rain 24hr cm | rain mn cm | humidity % | barometer mb |
| 20260901183102 | 28 | 286 | 6.4 | 19.3 | 0.00 | 0.00 | 0.00 | 31 | 1007.5 |
| 20260901181604 | 27 | 292 | 14.5 | 19.3 | 0.00 | 0.00 | 0.00 | 32 | 1007.4 |
| 20260901180054 | 26 | 320 | 8.0 | 22.5 | 0.00 | 0.00 | 0.00 | 38 | 1007.5 |
| 20260901174550 | 25 | 308 | 6.4 | 14.5 | 0.00 | 0.00 | 0.00 | 46 | 1007.9 |
| 20260901173057 | 24 | 41 | 11.3 | 16.1 | 0.00 | 0.00 | 0.00 | 53 | 1008.7 |
| 20260901171551 | 23 | 24 | 8.0 | 12.9 | 0.00 | 0.00 | 0.00 | 55 | 1008.9 |
| 20260901170044 | 22 | 42 | 4.8 | 9.7 | 0.00 | 0.00 | 0.00 | 56 | 1009.1 |
| 20260901164542 | 21 | 356 | 3.2 | 8.0 | 0.00 | 0.00 | 0.00 | 61 | 1009.1 |
| 20260901163032 | 20 | 290 | 3.2 | 14.5 | 0.00 | 0.00 | 0.00 | 66 | 1009.1 |
| 20260901161548 | 19 | 248 | 1.6 | 8.0 | 0.00 | 0.00 | 0.00 | 71 | 1009.0 |
| 20260901160032 | 18 | 328 | 3.2 | 6.4 | 0.00 | 0.00 | 0.00 | 73 | 1008.9 |
| 20260901154532 | 18 | 279 | 4.8 | 9.7 | 0.00 | 0.00 | 0.00 | 74 | 1008.6 |
| 20260901153029 | 17 | 293 | 3.2 | 6.4 | 0.00 | 0.00 | 0.00 | 79 | 1008.8 |
| 20260901151531 | 17 | 212 | 0.0 | 0.0 | 0.00 | 0.00 | 0.00 | 82 | 1008.8 |
| 20260901150037 | 17 | 212 | 0.0 | 0.0 | 0.00 | 0.00 | 0.00 | 83 | 1008.9 |
| 20260901144537 | 17 | 212 | 1.6 | 6.4 | 0.00 | 0.00 | 0.00 | 83 | 1009.2 |
| 20260901143026 | 17 | 227 | 0.0 | 4.8 | 0.00 | 0.00 | 0.00 | 81 | 1008.9 |
| 20260901141525 | 17 | 227 | 3.2 | 6.4 | 0.00 | 0.00 | 0.00 | 81 | 1009.1 |
| 20260901140024 | 17 | 166 | 3.2 | 9.7 | 0.00 | 0.00 | 0.00 | 80 | 1009.2 |
| 20260901134525 | 17 | 79 | 0.0 | 1.6 | 0.00 | 0.00 | 0.00 | 78 | 1009.0 |
| 20260901133022 | 17 | 55 | 0.0 | 1.6 | 0.00 | 0.00 | 0.00 | 79 | 1008.7 |
| 20260901131525 | 17 | 133 | 0.0 | 0.0 | 0.00 | 0.00 | 0.00 | 80 | 1008.6 |
| 20260901130025 | 16 | 133 | 0.0 | 0.0 | 0.00 | 0.00 | 0.00 | 81 | 1008.5 |
| 20260901124520 | 16 | 133 | 0.0 | 11.3 | 0.00 | 0.00 | 0.00 | 81 | 1008.5 |
| 20260901123019 | 16 | 89 | 0.0 | 0.0 | 0.00 | 0.00 | 0.00 | 82 | 1008.3 |
| 20260901121518 | 16 | 89 | 0.0 | 8.0 | 0.00 | 0.00 | 0.00 | 82 | 1008.4 |
| 20260901120017 | 16 | 254 | 0.0 | 0.0 | 0.00 | 0.00 | 0.00 | 82 | 1008.3 |
| 20260901114515 | 16 | 254 | 0.0 | 6.4 | 0.00 | 0.00 | 0.00 | 81 | 1008.1 |
| 20260901113014 | 16 | 254 | 0.0 | 3.2 | 0.00 | 0.00 | 0.00 | 81 | 1008.3 |
| 20260901111512 | 17 | 286 | 0.0 | 4.8 | 0.00 | 0.00 | 0.00 | 80 | 1007.9 |
| 20260901110011 | 17 | 326 | 0.0 | 6.4 | 0.00 | 0.00 | 0.00 | 79 | 1007.8 |
| 20260901104512 | 17 | 288 | 1.6 | 9.7 | 0.00 | 0.00 | 0.00 | 79 | 1008.0 |
| 20260901103008 | 17 | 346 | 6.4 | 11.3 | 0.00 | 0.00 | 0.00 | 79 | 1008.1 |
| 20260901101508 | 17 | 24 | 8.0 | 14.5 | 0.00 | 0.00 | 0.00 | 79 | 1008.2 |
| 20260901100005 | 17 | 16 | 9.7 | 16.1 | 0.00 | 0.00 | 0.00 | 78 | 1008.4 |
| 20260901094503 | 17 | 316 | 3.2 | 6.4 | 0.00 | 0.00 | 0.00 | 75 | 1009.4 |
| 20260901093103 | 17 | 41 | 0.0 | 6.4 | 0.00 | 0.00 | 0.00 | 74 | 1009.2 |
| 20260901091604 | 17 | 49 | 4.8 | 8.0 | 0.00 | 0.00 | 0.00 | 73 | 1008.9 |
| 20260901090058 | 17 | 34 | 4.8 | 9.7 | 0.00 | 0.00 | 0.00 | 72 | 1008.9 |
| 20260901084558 | 18 | 28 | 0.0 | 11.3 | 0.00 | 0.00 | 0.00 | 70 | 1008.8 |
| 20260901083057 | 18 | 80 | 0.0 | 12.9 | 0.00 | 0.00 | 0.00 | 70 | 1008.8 |
| 20260901081554 | 18 | 77 | 0.0 | 0.0 | 0.00 | 0.00 | 0.00 | 68 | 1008.8 |
| 20260901080053 | 18 | 77 | 0.0 | 0.0 | 0.00 | 0.00 | 0.00 | 66 | 1008.8 |
| 20260901074551 | 18 | 77 | 0.0 | 6.4 | 0.00 | 0.00 | 0.00 | 65 | 1009.1 |
| 20260901073057 | 18 | 77 | 0.0 | 0.0 | 0.00 | 0.00 | 0.00 | 64 | 1009.2 |
| 20260901071548 | 19 | 77 | 0.0 | 1.6 | 0.00 | 0.00 | 0.00 | 63 | 1009.1 |
| 20260901070054 | 19 | 88 | 0.0 | 3.2 | 0.00 | 0.00 | 0.00 | 62 | 1009.2 |
| 20260901064544 | 19 | 88 | 0.0 | 4.8 | 0.00 | 0.00 | 0.00 | 62 | 1009.1 |
| 20260901063042 | 20 | 88 | 0.0 | 8.0 | 0.00 | 0.00 | 0.00 | 62 | 1009.1 |
| 20260901061539 | 20 | 298 | 1.6 | 4.8 | 0.00 | 0.00 | 0.00 | 61 | 1008.7 |
| 20260901060036 | 20 | 61 | 0.0 | 3.2 | 0.00 | 0.00 | 0.00 | 60 | 1008.7 |
| 20260901054536 | 20 | 55 | 4.8 | 6.4 | 0.00 | 0.00 | 0.00 | 59 | 1008.6 |
| 20260901053036 | 21 | 68 | 4.8 | 11.3 | 0.00 | 0.00 | 0.00 | 59 | 1008.8 |
| 20260901051542 | 21 | 72 | 0.0 | 4.8 | 0.00 | 0.00 | 0.00 | 58 | 1008.7 |
| 20260901050035 | 21 | 64 | 4.8 | 8.0 | 0.00 | 0.00 | 0.00 | 59 | 1008.7 |
| 20260901044551 | 21 | 172 | 0.0 | 6.4 | 0.00 | 0.00 | 0.00 | 58 | 1009.0 |
| 20260901043034 | 21 | 172 | 0.0 | 3.2 | 0.00 | 0.00 | 0.00 | 58 | 1009.0 |
| 20260901041533 | 21 | 115 | 4.8 | 8.0 | 0.00 | 0.00 | 0.00 | 55 | 1009.0 |
| 20260901040033 | 22 | 138 | 0.0 | 3.2 | 0.00 | 0.00 | 0.00 | 53 | 1009.0 |
| 20260901034535 | 22 | 132 | 4.8 | 12.9 | 0.00 | 0.00 | 0.00 | 52 | 1009.2 |
| 20260901033049 | 22 | 188 | 1.6 | 16.1 | 0.00 | 0.00 | 0.00 | 50 | 1009.4 |
| 20260901031533 | 22 | 179 | 6.4 | 14.5 | 0.00 | 0.00 | 0.00 | 49 | 1009.6 |
| 20260901030035 | 22 | 216 | 9.7 | 20.9 | 0.00 | 0.00 | 0.00 | 51 | 1009.3 |
| 20260901024530 | 22 | 240 | 4.8 | 11.3 | 0.00 | 0.00 | 0.00 | 53 | 1009.2 |
| 20260901023031 | 22 | 211 | 6.4 | 12.9 | 0.00 | 0.00 | 0.00 | 51 | 1008.5 |
| 20260901021536 | 22 | 170 | 8.0 | 12.9 | 0.00 | 0.00 | 0.00 | 50 | 1007.7 |
| 20260901020033 | 23 | 199 | 12.9 | 19.3 | 0.00 | 0.00 | 0.00 | 47 | 1007.5 |
| 20260901014528 | 23 | 136 | 4.8 | 9.7 | 0.00 | 0.00 | 0.00 | 47 | 1006.9 |
| 20260901013032 | 24 | 139 | 6.4 | 20.9 | 0.00 | 0.00 | 0.00 | 47 | 1006.7 |
| 20260901011528 | 25 | 110 | 6.4 | 22.5 | 0.00 | 0.00 | 0.00 | 45 | 1006.7 |
| 20260901010030 | 25 | 76 | 3.2 | 24.1 | 0.00 | 0.00 | 0.00 | 42 | 1006.1 |
| 20260901004526 | 26 | 94 | 3.2 | 8.0 | 0.00 | 0.00 | 0.00 | 39 | 1005.8 |
| 20260901003036 | 26 | 181 | 1.6 | 4.8 | 0.00 | 0.00 | 0.00 | 39 | 1005.8 |
| 20260901001524 | 26 | 181 | 1.6 | 6.4 | 0.00 | 0.00 | 0.00 | 38 | 1005.8 |
| 20260901000031 | 26 | 130 | 1.6 | 11.3 | 0.00 | 0.00 | 0.00 | 40 | 1006.1 |
| 20260831234522 | 26 | 178 | 3.2 | 9.7 | 0.00 | 0.00 | 0.00 | 40 | 1006.0 |
| 20260831233021 | 26 | 153 | 4.8 | 12.9 | 0.00 | 0.00 | 0.00 | 41 | 1006.0 |
| 20260831231519 | 26 | 164 | 8.0 | 17.7 | 0.00 | 0.00 | 0.00 | 40 | 1006.4 |
| 20260831230018 | 27 | 175 | 6.4 | 22.5 | 0.00 | 0.00 | 0.00 | 34 | 1006.5 |
| 20260831224514 | 28 | 161 | 9.7 | 19.3 | 0.00 | 0.00 | 0.00 | 31 | 1006.8 |
| 20260831223012 | 28 | 136 | 11.3 | 19.3 | 0.00 | 0.00 | 0.00 | 30 | 1007.1 |
| 20260831221511 | 28 | 122 | 8.0 | 14.5 | 0.00 | 0.00 | 0.00 | 28 | 1007.6 |
| 20260831220020 | 28 | 171 | 6.4 | 17.7 | 0.00 | 0.00 | 0.00 | 27 | 1007.7 |
| 20260831214509 | 28 | 78 | 4.8 | 11.3 | 0.00 | 0.00 | 0.00 | 27 | 1007.5 |
| 20260831213010 | 28 | 215 | 1.6 | 11.3 | 0.00 | 0.00 | 0.00 | 27 | 1007.6 |
| 20260831211507 | 28 | 261 | 0.0 | 6.4 | 0.00 | 0.00 | 0.00 | 26 | 1007.6 |
| 20260831210007 | 28 | 213 | 4.8 | 11.3 | 0.00 | 0.00 | 0.00 | 27 | 1007.7 |
| 20260831204507 | 28 | 281 | 4.8 | 9.7 | 0.00 | 0.00 | 0.00 | 28 | 1008.0 |
| 20260831203006 | 28 | 332 | 3.2 | 12.9 | 0.00 | 0.00 | 0.00 | 28 | 1008.1 |
| 20260831201505 | 28 | 299 | 9.7 | 19.3 | 0.00 | 0.00 | 0.00 | 27 | 1008.1 |
| 20260831200005 | 28 | 233 | 3.2 | 24.1 | 0.00 | 0.00 | 0.00 | 28 | 1008.1 |
| 20260831194507 | 28 | 308 | 11.3 | 24.1 | 0.00 | 0.00 | 0.00 | 27 | 1008.2 |
| 20260831193004 | 28 | 317 | 9.7 | 24.1 | 0.00 | 0.00 | 0.00 | 27 | 1008.2 |
| 20260831191504 | 28 | 280 | 9.7 | 25.7 | 0.00 | 0.00 | 0.00 | 27 | 1008.4 |
| 20260831190004 | 29 | 297 | 8.0 | 20.9 | 0.00 | 0.00 | 0.00 | 27 | 1008.4 |
| 20260831184503 | 28 | 291 | 11.3 | 22.5 | 0.00 | 0.00 | 0.00 | 29 | 1008.8 |